Flag for Germany Weather past 2 weeks in Wittenberge, Mecklenburg-Western Pomerania, Germany

Now
76 °F

Light rain. Overcast.


Feels Like: 78 °F
Forecast: 64 / 80 °F
Wind: 3 mph from Northeast

Location: Marnitz

Current Time: Jul 29, 2014 at 9:38:30 PM

Latest Report: Jul 29, 2014 at 9:00 PM


Visibility: 12 mi

Pressure: 29.73 "Hg

Humidity: 64%

Dew point: 64 °F

Location of WittenbergeLocation

Historic Weather in Wittenberge — Graph

°F

Wittenberge temperature yesterday

Maximum temperature yesterday: 81 °F (at 5:00 PM)
Minimum temperature yesterday: 67 °F (at 11:00 PM)
Average temperature yesterday: 76 °F

Past Weeks' High & Low Weather Summary

 TemperatureHumidityPressure
High90 °F (Jul 20, 4:00 PM)96% (Jul 17, 5:00 AM)30.18 "Hg (Jul 17, 5:00 AM)
Low56 °F (Jul 17, 6:00 AM)28% (Jul 19, 4:00 PM)29.71 "Hg (Jul 29, 6:00 PM)
Average71 °F67%30.01 "Hg
* Reported Jul 14 8:00 PM — Jul 29 8:00 PM, Wittenberge, Weather by CustomWeather, © 2014

Note: Actual official high and low records may vary slightly from our data, if they occured in-between our weather recording intervals... More about our weather records

Advertising

Wittenberge weather history for previous 24 hours

 ConditionsComfort  
Time TempWeatherWind HumidityBarometerVisibility
8:00 PM
Jul 29
78 °FOvercast.3 mph62%29.72 "Hg11 mi
7:00 PM80 °FOvercast.5 mph59%29.72 "Hg12 mi
6:00 PM82 °FPartly sunny.6 mph53%29.71 "Hg14 mi
5:00 PM84 °FOvercast.5 mph53%29.73 "Hg15 mi
4:00 PM82 °FOvercast.3 mph51%29.73 "Hg16 mi
3:00 PM81 °FOvercast.3 mph50%29.77 "Hg15 mi
2:00 PM82 °FOvercast.3 mph52%29.78 "Hg16 mi
1:00 PM81 °FOvercast.5 mph54%29.79 "Hg14 mi
12:00 PM82 °FOvercast.5 mph52%29.80 "Hg14 mi
11:00 AM79 °FPassing clouds.5 mph60%29.81 "Hg12 mi
10:00 AM76 °FPartly sunny.3 mph68%29.81 "Hg8 mi
9:00 AM71 °FFog.2 mph85%29.82 "Hg3 mi
8:00 AM67 °FFog.2 mph92%29.82 "Hg2 mi
7:00 AM66 °FFog.1 mph94%29.83 "Hg2 mi
6:00 AM63 °FFog.1 mph95%29.83 "Hg1 mi
5:00 AM63 °FFog.1 mph94%29.84 "Hg2 mi
4:00 AM64 °FFog.1 mph93%29.84 "Hg2 mi
3:00 AM64 °FFog.1 mph93%29.85 "Hg3 mi
2:00 AM65 °FPassing clouds.1 mph89%29.85 "Hg6 mi
1:00 AM66 °FClear.2 mph88%29.87 "Hg7 mi
12:00 AM66 °FClear.1 mph86%29.87 "Hg9 mi
11:00 PM
Jul 28
67 °FPassing clouds.1 mph85%29.88 "Hg7 mi
10:00 PM70 °FPassing clouds.1 mph80%29.88 "Hg9 mi
9:00 PM75 °FPartly sunny.2 mph67%29.87 "Hg14 mi
Weather by CustomWeather, © 2014

See weather overviewHow to use our weather pages